Flag for Japan Weather past 2 weeks in Hamamatsu, Japan

Now
75 °F

Light rain. Overcast.


Feels Like: 74 °F
Forecast: 72 / 79 °F
Wind: 3 mph from Southwest

Location: Omaezaki

Current Time: Aug 24, 2014 at 3:54:05 AM

Latest Report: Aug 24, 2014 at 3:00 AM


Visibility: 11 mi

Pressure: 29.88 "Hg

Humidity: 98%

Dew point: 75 °F

Location of HamamatsuLocation

Historic Weather in Hamamatsu — Graph

°F

Hamamatsu temperature yesterday

Maximum temperature yesterday: 80 °F (at 2:00 PM)
Minimum temperature yesterday: 74 °F (at 8:00 AM)
Average temperature yesterday: 77 °F

Past Weeks' High & Low Weather Summary

 TemperatureHumidityPressure
High85 °F (Aug 19, 10:00 AM)100% (Aug 10, 3:00 AM)30.03 "Hg (Aug 10, 3:00 AM)
Low74 °F (Aug 23, 8:00 AM)72% (Aug 9, 12:00 PM)29.44 "Hg (Aug 10, 3:00 PM)
Average79 °F95%29.84 "Hg
* Reported Aug 9 2:00 AM — Aug 24 2:00 AM, Hamamatsu, Weather by CustomWeather, © 2014

Note: Actual official high and low records may vary slightly from our data, if they occured in-between our weather recording intervals... More about our weather records

Advertising

Hamamatsu weather history for previous 24 hours

 ConditionsComfort  
Time TempWeatherWind HumidityBarometerVisibility
2:00 AM
Aug 24
76 °FMild.3 mph94%29.88 "Hg12 mi
1:00 AM76 °FMild.5 mph95%29.89 "Hg12 mi
12:00 AM75 °FMild.5 mph95%29.90 "Hg12 mi
11:00 PM
Aug 23
75 °FMild.5 mph95%29.90 "Hg12 mi
10:00 PM75 °FMild.7 mph97%29.91 "Hg12 mi
9:00 PM75 °FMild.12 mph99%29.91 "Hg12 mi
8:00 PM76 °FMild.8 mph100%29.92 "Hg9 mi
7:00 PM76 °FMild.7 mph100%29.89 "Hg10 mi
6:00 PM77 °FLight rain. Overcast.3 mph100%29.89 "Hg7 mi
5:00 PM77 °FWarm.6 mph97%29.91 "Hg12 mi
4:00 PM79 °FWarm.7 mph89%29.91 "Hg12 mi
3:00 PM79 °FWarm.13 mph88%29.89 "Hg12 mi
2:00 PM80 °FWarm.8 mph84%29.89 "Hg12 mi
1:00 PM79 °FWarm.6 mph85%29.91 "Hg12 mi
12:00 PM76 °FMild.6 mph95%29.92 "Hg12 mi
11:00 AM75 °FLight rain. Cloudy.5 mph100%29.93 "Hg7 mi
10:00 AM74 °FRain. Cloudy.2 mph100%29.93 "Hg2 mi
9:00 AM74 °FLight rain. Cloudy.5 mph100%29.93 "Hg6 mi
8:00 AM74 °FRain. Cloudy.12 mph99%29.92 "Hg1 mi
7:00 AM78 °FLight rain. Cloudy.3 mph100%29.92 "Hg12 mi
6:00 AM77 °FRain. Cloudy.3 mph100%29.89 "Hg2 mi
5:00 AM77 °FWarm.3 mph100%29.89 "Hg10 mi
4:00 AM77 °FWarm.3 mph100%29.89 "Hg12 mi
3:00 AM77 °FWarm.5 mph100%29.90 "Hg11 mi
Weather by CustomWeather, © 2014

See weather overviewHow to use our weather pages